Regional Weather Roundup
Issued by NWS Little Rock, AR

Home | Current Version | Previous Version | Graphics & Text | Print | Product List | Glossary On
Versions: 1 2 3 4 5 6 7 8 9 10 11 12 13 14 15 16 17 18 19 20 21 22 23 24 25 26 27 28
000
ASUS44 KLZK 160905
RWRLZK

WEATHER ROUNDUP FOR ARKANSAS
NATIONAL WEATHER SERVICE LITTLE ROCK AR
400 AM CDT WED APR 16 2014

NOTE: "FAIR" INDICATES FEW OR NO CLOUDS BELOW 12,000 FEET WITH NO
SIGNIFICANT WEATHER AND/OR OBSTRUCTIONS TO VISIBILITY.

ARZ001-003-010-029-161000-
NORTHWEST ARKANSAS

CITY           SKY/WX    TMP DP  RH WIND       PRES   REMARKS
FAYETTEVILLE   CLEAR     40  28  62 S8        30.11S
FORT SMITH     CLEAR     40  33  76 E7        30.13S
HARRISON       CLEAR     37  28  70 SE13      30.13F
BENTONVILLE    CLEAR     39  27  60 SE9       30.09F
ROGERS         CLEAR     40  28  62 SE9       30.09F
HIGHFILL       CLEAR     37  28  70 SE7       30.08F
$$

ARZ004-005-016-161000-
NORTH CENTRAL ARKANSAS

CITY           SKY/WX    TMP DP  RH WIND       PRES   REMARKS
BATESVILLE     CLEAR     39  28  65 CALM      30.21S
FLIPPIN        CLEAR     39  25  56 SE5       30.17F
MTN HOME       CLEAR     36  28  73 SE5       30.16S
$$

ARZ040-041-161000-
WEST CENTRAL ARKANSAS

CITY           SKY/WX    TMP DP  RH WIND       PRES   REMARKS
MENA           CLEAR     36  36 100 CALM      30.15S
MOUNT IDA      CLEAR     41  32  70 SE3       30.14S
$$

ARZ009-017-025-026-028-161000-
NORTHEAST ARKANSAS

CITY           SKY/WX    TMP DP  RH WIND       PRES   REMARKS
CORNING        FAIR      36  32  87 E5        30.25F
JONESBORO      CLEAR     33  30  88 E3        30.24F
NEWPORT        CLEAR     38  33  82 SE5       30.24F
BLYTHEVILLE    CLEAR     37  28  70 E7        30.26S
$$

ARZ022-023-033-042-044-161000-
CENTRAL ARKANSAS

CITY           SKY/WX    TMP DP  RH WIND       PRES   REMARKS
LITTLE ROCK    PTCLDY    41  33  73 CALM      30.21F
N LITTLE ROCK    N/A     41  36  83 SE6       30.21F
JACKSONVILLE   CLEAR     35  34  95 CALM      30.21S
SEARCY         CLEAR     35  33  92 CALM      30.23F
HOT SPRINGS    CLEAR     39  32  76 E6        30.19S
RUSSELLVILLE   CLEAR     41  34  76 CALM      30.18R
CLINTON        FAIR      34  32  93 CALM      30.22S
$$

ARZ036-161000-
EAST ARKANSAS

CITY           SKY/WX    TMP DP  RH WIND       PRES   REMARKS
WEST MEMPHIS   CLEAR     36  31  82 CALM      30.24R HAZE
$$

ARZ050-053-066-070-073-161000-
SOUTHWEST ARKANSAS

CITY           SKY/WX    TMP DP  RH WIND       PRES   REMARKS
ARKADELPHIA    FAIR      40  37  89 E3        30.21S
CAMDEN         CLEAR     36  32  87 MISG      30.21S
TEXARKANA      CLEAR     41  34  76 SE6       30.18R
EL DORADO      CLEAR     36  34  92 CALM      30.20S
DE QUEEN       CLEAR     38  35  89 NE5       30.15S
$$

ARZ056-057-069-161000-
SOUTHEAST ARKANSAS

CITY           SKY/WX    TMP DP  RH WIND       PRES   REMARKS
PINE BLUFF     CLEAR     39  34  82 SE5       30.22R
STUTTGART      CLEAR     41  30  65 SE7       30.22R
MONTICELLO     CLEAR     35  32  88 CALM      30.21S

$$





USA.gov is the U.S. government's official web portal to all federal, state and local government web resources and services.